Dewpoint
58 58 58 58 58 58 58 58 58 58 59 59 59 59 60 60 60 46 37 51 57 73 71 60 62 60 61 59 56 55 54 36 37 38 38 38 41 46 48 49 51 51 51 53 55
58 58 58 58 58 58 58 58 58 58 58 58 59 59 59 60 46 35 59 71 70 72 61 60 58 59 58 63 55 52 51 37 38 40 39 39 39 42 44 47 49 52 54 55 56
58 58 58 58 58 58 58 58 58 58 58 58 58 58 59 59 42 32 67 72 72 70 62 62 59 59 63 58 52 50 41 39 39 40 42 41 40 40 43 44 49 53 54 54 55
58 58 58 58 58 58 58 58 58 58 57 58 58 58 60 49 34 33 68 73 72 63 63 60 60 58 58 52 47 47 39 40 41 42 42 41 42 40 41 43 50 53 53 54 53
57 57 57 57 58 58 58 58 58 58 57 57 58 59 51 40 37 45 69 66 60 62 61 54 65 64 58 50 49 46 38 39 41 41 41 41 42 43 44 44 49 52 53 53 52
56 56 56 56 57 57 58 58 58 58 57 57 58 60 42 34 40 37 43 46 57 58 50 51 45 45 50 45 46 40 39 41 41 43 42 40 40 42 43 44 49 51 53 52 52
56 56 56 56 56 57 57 57 58 58 58 57 58 52 39 35 37 41 46 51 54 49 47 47 43 49 55 54 44 40 39 40 42 43 43 46 40 39 44 42 48 51 53 53 53
55 56 55 55 56 56 57 57 57 58 58 59 60 47 39 33 38 38 43 50 51 45 46 50 44 44 54 54 50 50 52 50 43 42 46 46 43 43 44 44 46 49 51 51 52
55 55 55 55 55 55 56 57 57 58 59 59 50 40 30 47 32 31 43 46 45 46 46 48 42 43 56 54 52 48 50 51 48 41 43 46 47 46 44 45 48 49 51 51 52
55 55 55 55 55 55 56 57 59 57 55 45 41 35 26 27 29 28 38 44 42 46 47 47 39 48 54 53 48 42 40 41 44 44 40 41 46 46 45 43 44 46 48 50 51
55 54 54 54 55 55 53 46 40 36 35 17 17 22 17 25 31 27 33 41 43 46 44 42 33 42 46 47 45 38 37 40 46 47 47 42 46 46 46 45 44 44 47 48 49
54 54 54 55 55 55 52 45 34 35 29 19 13 11 22 26 26 25 28 40 44 43 42 41 31 37 44 47 39 33 32 41 41 42 43 55 43 45 46 46 46 45 45 47 48
54 54 54 54 54 50 38 39 35 33 30 23 13 13 20 21 19 23 24 35 40 42 39 39 37 33 30 32 32 29 37 40 41 39 42 45 42 43 46 46 47 47 47 47 49
54 54 53 53 50 36 35 36 35 33 30 27 22 14 16 18 16 18 24 25 29 28 32 33 32 31 29 25 26 27 33 31 30 33 37 42 40 49 49 47 47 47 48 49 48
54 54 53 53 46 38 38 35 35 33 29 25 17 16 19 18 19 17 23 20 23 24 25 26 25 24 24 27 27 26 28 29 31 31 27 33 38 43 46 46 46 46 47 48 51
53 53 53 47 45 35 35 35 33 28 26 19 15 18 17 17 20 20 19 20 19 19 19 18 20 19 17 23 23 26 24 24 27 25 22 31 23 41 49 43 40 43 43 47 49
53 53 51 46 35 31 31 35 29 26 28 22 16 16 17 18 18 20 20 21 18 16 16 14 11 14 12 16 18 23 20 21 24 22 23 24 14 35 47 34 35 37 35 41 44
52 51 50 39 34 35 35 34 32 28 24 21 18 14 16 18 19 17 20 17 16 13 9 11 10 8 9 10 16 20 18 19 26 19 20 23 20 23 25 24 23 27 29 30 35
51 47 41 22 30 35 36 32 31 29 26 23 19 16 17 17 18 18 18 19 19 16 17 16 14 7 6 7 11 18 21 19 17 18 17 15 21 21 21 25 37 40 48 48 43
47 45 36 30 24 37 36 34 30 30 29 27 25 21 20 19 19 19 20 20 19 18 17 18 20 17 15 10 10 9 15 15 19 23 22 19 22 22 29 33 32 35 44 49 48
44 42 36 27 33 37 33 32 30 30 30 28 26 25 24 22 19 17 18 19 18 18 19 17 18 20 21 20 17 12 11 13 11 15 18 18 28 30 33 36 32 29 36 37 40
44 37 38 30 30 32 32 31 35 30 29 27 28 30 29 26 24 21 17 22 20 19 20 20 16 19 19 21 20 17 19 15 13 26 19 18 22 24 27 25 34 37 43 44 45
44 39 39 32 27 25 26 26 31 30 29 28 27 28 29 30 31 28 25 32 30 26 33 30 23 17 20 17 20 19 20 18 17 18 25 21 23 26 28 33 39 40 43 49 50
45 31 33 33 32 33 34 29 29 28 27 28 29 31 30 31 32 32 30 32 33 31 56 44 26 27 19 23 24 27 22 25 23 19 20 18 23 28 34 33 39 44 49 51 57
42 34 38 35 29 29 32 30 29 27 28 29 29 28 29 30 30 31 31 31 34 47 38 32 31 29 27 26 26 26 25 26 26 23 22 24 27 30 43 40 40 45 51 53 57
40 38 39 35 36 35 32 32 30 27 31 28 29 28 27 29 34 36 38 36 37 37 36 35 35 33 31 30 30 29 29 29 28 27 28 27 28 30 40 42 45 47 51 52 55
42 43 37 36 27 27 28 29 30 30 30 28 33 31 30 36 36 36 36 36 37 38 39 39 38 38 34 32 31 29 29 29 31 30 28 28 33 33 43 44 44 47 50 51 52
Lifted_Index
15 15 15 15 15 15 15 15 15 15 15 14 14 13 13 11 8 5 4 4 2 0 -1 -2 -3 -4 -5 -4 -3 -3 -3 -2 -1 -0 1 1 1 1 0 -0 -0 -0 0 1 1
15 15 15 15 15 15 15 15 16 16 15 15 14 13 13 11 7 5 5 3 1 -1 -2 -2 -3 -4 -4 -3 -2 -2 -2 -2 -1 0 1 1 1 1 0 -0 -1 -1 -0 1 1
15 15 15 16 16 16 15 16 16 16 15 15 14 13 12 10 7 5 4 2 -0 -1 -2 -3 -3 -2 -3 -2 -2 -2 -2 -1 -0 0 0 1 1 1 1 0 -1 -1 -0 0 1
15 15 15 15 16 16 16 16 16 16 15 15 14 13 12 9 6 5 3 0 -1 -2 -3 -3 -2 -1 -2 -2 -2 -2 -1 -1 0 0 0 1 1 1 1 1 -0 -1 -0 0 1
14 14 14 15 15 16 16 16 16 16 15 15 14 13 11 8 6 4 2 -1 -1 -2 -2 -2 -2 -2 -2 -2 -1 -2 -1 -0 0 0 0 1 1 1 1 1 1 0 0 1 1
15 14 14 14 15 15 15 16 16 16 15 15 14 13 10 7 6 4 2 -0 -1 -1 -1 -1 -1 -1 -2 -2 -2 -2 -2 -1 0 0 0 0 1 1 2 2 1 1 1 1 1
16 15 14 14 15 15 15 16 16 15 15 14 14 12 9 7 6 5 2 0 -0 0 0 0 0 -0 -1 -2 -2 -2 -2 -1 -0 -0 -0 -0 1 1 2 2 2 1 1 1 1
17 16 15 14 15 15 16 16 15 15 14 14 13 11 8 7 7 6 3 1 1 1 1 0 1 0 -1 -2 -2 -2 -1 -1 -1 -1 -1 -1 0 1 2 2 2 1 1 1 1
17 17 15 14 15 15 15 15 15 14 13 12 11 9 8 7 7 6 4 2 1 1 1 0 0 0 -1 -1 -1 -1 -1 -1 -2 -1 -1 -1 -0 0 1 2 2 2 1 1 1
18 17 15 14 14 14 14 14 13 12 12 11 9 8 8 8 7 7 5 3 2 1 0 0 0 -0 -1 -1 -1 -1 -1 -2 -2 -1 -1 -1 -1 -0 1 1 2 2 2 2 2
17 17 15 14 13 13 12 11 10 10 10 9 8 8 8 7 7 7 6 4 2 1 0 -0 -0 -1 -1 -1 -1 -1 -1 -2 -2 -1 -1 -2 -2 -1 -0 0 1 1 2 2 2
17 16 15 13 12 12 10 9 8 8 8 8 8 7 7 7 7 7 6 4 2 1 -0 -1 -1 -0 -1 -1 -1 -1 -1 -2 -2 -1 -2 -2 -2 -1 -1 -1 -0 1 1 1 2
16 16 14 13 12 11 9 8 8 7 7 7 7 7 7 7 7 7 6 5 3 1 0 -1 -1 0 0 -0 -0 -1 -1 -1 -1 -1 -1 -1 -1 -1 -1 -1 -1 -0 0 1 1
16 16 14 12 10 9 8 8 7 7 6 6 6 7 7 7 6 6 6 5 4 3 2 0 0 1 2 1 0 -0 -0 -0 -0 -1 -1 -1 -0 -1 -1 -2 -1 -1 -1 -0 -0
16 15 14 12 9 8 7 7 7 6 4 5 6 6 6 6 6 6 6 6 5 5 3 2 2 2 2 2 1 1 1 1 1 -0 -1 -1 -1 -1 -1 -2 -2 -1 -1 -1 -1
15 15 14 12 9 8 7 7 6 4 3 4 5 5 6 5 5 5 6 6 5 5 4 3 3 3 3 3 2 2 2 1 1 -0 -1 -1 -1 -1 -1 -1 -1 -1 -1 -1 -2
15 15 13 11 9 8 8 6 4 3 2 3 4 5 5 5 5 5 6 6 5 4 3 3 3 3 3 3 3 3 2 1 -0 -1 -1 -1 -1 -0 -0 -0 -0 0 0 -0 -1
14 13 13 11 10 9 7 5 3 1 1 2 3 4 4 4 4 4 5 5 5 4 3 1 1 2 3 3 3 2 1 -0 -1 -1 -1 -1 -1 -0 -0 -0 0 1 1 0 -0
12 11 11 11 10 9 6 4 2 1 1 2 2 2 2 2 3 3 4 4 4 3 2 1 0 1 2 3 3 2 1 -0 -1 -1 -1 -1 -1 -0 0 0 0 0 -0 -1 -1
10 8 8 10 10 8 6 4 3 3 3 3 2 1 0 0 1 2 2 2 3 3 3 2 1 1 2 3 3 2 1 0 -0 -1 -1 -1 -1 -0 0 0 0 1 1 -0 -1
7 6 7 9 9 7 5 4 3 3 4 4 3 2 0 -0 -0 0 0 1 2 2 3 2 2 1 1 2 2 2 1 1 0 -0 -1 -1 -1 -0 0 0 1 2 2 2 1
5 5 6 7 7 6 5 4 4 4 4 4 4 3 2 1 0 -0 -0 0 1 2 3 3 2 1 0 1 1 1 1 0 0 -0 -1 -1 -1 -0 0 0 1 2 2 2 1
4 4 5 6 6 5 4 4 4 4 4 4 4 4 3 3 2 1 0 1 2 3 3 3 2 1 0 -0 0 0 0 -0 -0 -0 -1 -1 -1 -0 0 0 1 2 2 1 1
4 4 4 5 5 4 3 3 4 4 5 5 5 4 4 3 3 2 1 2 3 3 3 3 3 2 1 0 0 -0 -0 -0 -0 -0 -1 -1 -0 -0 -0 0 0 1 1 0 -1
5 4 4 4 4 4 3 3 4 4 5 5 5 5 4 4 3 2 2 2 3 3 3 3 3 3 2 2 1 0 -0 -0 -0 -0 -0 -0 -0 -0 -1 -1 -0 0 1 -0 -1
6 6 5 5 5 4 4 4 4 5 5 6 6 5 5 5 4 3 3 3 3 3 3 3 3 3 3 3 2 2 1 0 -0 -0 -0 -0 0 -0 -1 -1 0 1 1 1 -0
7 7 6 6 5 5 5 5 5 5 5 6 6 6 5 5 5 4 4 3 3 3 3 3 3 3 3 3 3 3 2 1 0 0 -0 -0 -0 -0 -1 -0 1 1 2 1 1